Location: Lake Zurich
(42.1970°N, 88.0930°W)
Time: 02:59:29
(UTC-06:00)

Daily predictions for brighter satellites

Satellite Brightness Start Highest point End
(mag) Time Altitude Azimuth Time Altitude Azimuth Time Altitude Azimuth
ATLAS 5 CENTAUR R/B 4.3 03:04:33 19° ENE 03:04:33 19° ENE 03:06:16 10° NE
Cosmos 1943 Rocket 3.9 03:10:09 27° E 03:10:09 27° E 03:13:51 10° NE
Lacrosse 5 3.9 03:19:12 25° ENE 03:19:12 25° ENE 03:21:38 10° ENE
USA 234 4.0 03:19:39 10° ENE 03:25:49 43° SE 03:26:03 43° SE
ADEOS Rocket 4.4 03:20:05 10° N 03:23:30 30° N 03:23:30 30° N
ADEOS II 2.8 03:36:27 10° NNE 03:40:44 50° ENE 03:40:44 50° ENE
Cosmos 407 Rocket 3.9 03:54:00 59° ESE 03:54:00 59° ESE 03:58:35 10° SSE
PAYLOAD B 4.5 03:47:56 10° NNE 03:52:34 63° NNE 03:52:34 63° NNE
Okean-O 4.3 03:53:42 10° NNE 03:57:41 32° E 03:59:52 21° SE
CZ-4B DEB 4.2 03:57:23 10° NNE 04:02:35 79° N 04:02:35 79° N
Meteor 1-31 Rocket 4.3 04:02:41 10° NNE 04:06:16 34° E 04:06:42 33° ESE
CZ-4C R/B 3.1 04:06:47 29° SSE 04:08:55 42° ESE 04:14:21 10° NE
Cosmos 2369 Rocket 3.0 04:10:53 37° NNW 04:10:53 37° NNW 04:14:51 10° NNE
Cosmos 972 4.4 04:21:00 60° S 04:21:57 83° ESE 04:27:10 10° NNE
Cosmos 1703 Rocket 3.7 04:22:54 50° SSE 04:23:54 69° E 04:28:15 10° NNE
GEOS 3 Rocket 3.6 04:21:50 10° SSE 04:26:26 57° SW 04:26:26 57° SW
Cosmos 1833 4.0 04:31:27 34° NW 04:33:50 65° WSW 04:39:22 10° S
Cosmos 1553 Rocket 4.4 04:31:38 10° S 04:37:42 64° E 04:43:55 10° NNE
Okean O Rocket 3.7 04:34:12 10° N 04:35:07 15° NNW 04:35:07 15° NNW
ATLAS CENTAUR R/B 3.8 04:37:26 38° W 04:39:20 44° SW 04:54:23 10° SSE
Cosmos 2056 Rocket 4.1 04:40:01 36° NW 04:40:01 36° NW 04:44:16 10° N
ERS-2 3.9 04:38:37 10° N 04:40:04 21° N 04:40:04 21° N
Meteor 2-10 Rocket 3.3 04:40:23 18° SSW 04:44:06 79° W 04:49:12 10° N
CZ-4B R/B 3.7 04:40:21 10° NNE 04:44:21 86° WNW 04:46:30 28° SSW
ATLAS 5 CENTAUR R/B 2.5 04:46:07 35° NW 04:46:23 35° NW 04:51:12 10° NNE
Cosmos 1954 Rocket 3.9 04:42:31 10° NNW 04:47:50 75° WSW 04:53:08 10° SSE
COSMO-SKYMED 1 3.2 04:46:34 10° SSE 04:50:49 57° ENE 04:55:05 10° N
Cosmos 1943 Rocket 2.6 04:51:42 37° W 04:52:41 40° WNW 04:57:54 10° N
Lacrosse 5 rocket 3.4 04:52:40 11° NNW 04:55:00 19° NNE 04:57:37 10° ENE
Cosmos 1420 Rocket 4.1 04:49:57 10° SSW 04:55:07 78° ESE 05:00:19 10° NNE
NOAA 6 4.1 04:51:11 10° NNE 04:56:23 79° ESE 05:01:31 10° S
Cosmos 2221 Rocket 3.5 04:52:10 11° SSW 04:56:29 67° W 05:01:03 10° N
CZ-4B R/B 4.0 04:53:08 10° N 04:57:59 31° WNW 04:58:42 30° W
Lacrosse 5 2.4 04:58:26 33° WNW 04:59:54 42° NW 05:04:44 10° NE
Meteor 1-28 Rocket 4.2 04:56:50 10° SSE 05:00:24 47° ENE 05:04:01 10° N
Meteor 1-20 Rocket 4.3 04:57:54 10° N 05:03:39 83° E 05:09:15 10° SSE
USA 234 3.4 05:02:32 10° NE 05:08:57 60° NW 05:13:26 21° WSW
Okean 1-7 3.1 05:08:29 10° SSW 05:12:38 51° W 05:16:48 10° N
Thor Agena Rocket 3.7 05:07:41 10° S 05:12:42 47° W 05:17:41 10° NNW
Abrixas 4.0 05:12:25 21° NNW 05:13:01 23° N 05:15:24 10° NE
Cosmos 1782 2.8 05:11:39 10° S 05:15:36 86° E 05:19:35 10° N
Meteor 1-14 Rocket 4.4 05:10:20 10° NNW 05:15:54 48° W 05:21:19 10° SSW
Cosmos 1452 Rocket 4.0 05:16:58 17° SW 05:20:40 39° WNW 05:25:39 10° N
SKYMED 3 4.5 05:16:31 10° S 05:20:49 67° W 05:25:09 10° NNW
ADEOS II 3.3 05:17:12 10° NNW 05:20:55 20° WNW 05:21:42 19° WNW
Cosmos 1606 2.8 05:19:49 10° S 05:23:40 82° E 05:27:35 10° N
Cosmos 1745 Rocket 3.9 05:20:48 10° NNW 05:26:53 63° W 05:32:54 10° S
Cosmos 1782 Rocket 4.3 05:23:06 10° NNW 05:26:59 30° W 05:30:51 10° SSW
Cosmos 1386 Rocket 4.4 05:25:17 10° N 05:31:21 77° W 05:37:26 10° S
Cosmos 1741 Rocket 4.0 05:26:43 10° NNW 05:31:55 65° WSW 05:37:07 10° S
Tiangong 1 0.8 05:31:47 23° W 05:33:26 85° N 05:36:22 10° E
Okean-O 3.7 05:30:25 10° NNW 05:34:01 25° WNW 05:37:29 11° WSW
ATLAS 3B R/B 3.1 05:26:47 10° SSW 05:34:21 77° ESE 05:41:40 10° NE
Meteor 2-6 Rocket 4.1 05:30:01 10° S 05:35:24 86° W 05:40:51 10° N
Cosmos 2297 Rocket 3.5 05:30:27 10° NNW 05:35:50 42° ENE 05:41:10 10° SE
Cosmos 1300 Rocket 4.4 05:31:37 10° N 05:36:01 56° E 05:40:19 10° SSE
SKYMED 2 3.9 05:34:48 10° S 05:38:54 42° W 05:43:02 10° NNW
Meteor 1-31 Rocket 4.3 05:37:49 10° NNW 05:40:28 18° WNW 05:42:09 14° W
Cosmos 2219 3.7 05:45:10 10° NW 05:50:19 37° WSW 05:55:25 10° S
USA 81 4.3 05:46:14 10° SSW 05:51:16 46° W 05:56:22 10° N
Okean 2 Rocket 4.2 05:49:21 10° NW 05:52:42 21° W 05:56:01 10° SW
Cosmos 1140 Rocket 4.5 05:48:46 10° NW 05:53:01 25° W 05:57:14 10° SSW
Cosmos 1674 Rocket 3.5 05:48:40 10° S 05:53:04 79° W 05:57:32 10° N
Cosmos 1378 Rocket 4.4 05:50:34 10° S 05:54:50 55° E 05:59:06 10° NNE
CZ-4 R/B 2.4 05:51:24 10° NNE 05:55:30 54° E 05:59:31 10° S
Cosmos 2227 Rocket 2.4 05:50:17 10° NNW 05:56:00 79° ENE 06:01:40 10° SSE
CZ-4C R/B 3.0 05:52:33 10° WSW 05:57:29 35° NW 06:03:03 10° NNE
CZ-2C R/B 2.9 05:56:07 10° NNE 06:01:02 71° ESE 06:06:04 10° S
COSMOS 2455 4.1 05:55:25 10° S 06:01:07 46° ESE 06:06:51 10° NE
Okean 3 4.1 05:57:54 10° S 06:02:08 64° E 06:06:26 10° NNE
Meteor 1-11 Rocket 3.8 05:57:55 10° NNW 06:03:54 76° W 06:09:45 10° S
Cosmos 1607 4.0 06:06:40 10° SW 06:12:42 61° NW 06:18:50 10° NNE
